Location: Ferchesar
(52.6477°N, 12.4298°E)
Time: 22:19:10
(UTC+01:00)

TIGRISAT - Pass Details

Date: 21 October 2021
Orbit: 603 x 689 km, 97.7° (Epoch: 30 November)

Event Time Altitude Azimuth Distance (km) Brightness Sun altitude
Rises 21:50:16 0° 5° (N) 3,009 ? -34.4°
Reaches altitude 10° 21:52:58 10° 349° (N) 2,076 ? -34.7°
Maximum altitude 21:56:17 21° 302° (WNW) 1,472 ? -35.1°
Drops below altitude 10° 21:59:32 10° 254° (WSW) 2,025 ? -35.5°
Sets 22:02:09 0° 238° (WSW) 2,913 ? -35.9°
